Regional Weather Roundup
Issued by NWS

Home | Current Version | Previous Version | Graphics & Text | Print | Product List | Glossary On
Versions: 1 2 3 4 5 6 7 8 9 10 11 12 13 14 15 16 17 18 19 20 21 22 23 24 25 26 27
000
ASUS45 KCYS 241410
RWRWY

WYOMING REGIONAL WEATHER ROUNDUP
NATIONAL WEATHER SERVICE CHEYENNE WY
800 AM MDT WED AUG 24 2016

NOTE:  "FAIR" INDICATES FEW OR NO CLOUDS BELOW 12,000 FEET
WITH NO SIGNIFICANT WEATHER AND/OR OBSTRUCTIONS TO VISIBILITY.

WYZ001-241500-
YELLOWSTONE NATIONAL PARK

CITY           SKY/WX    TMP DP  RH WIND       PRES   REMARKS
LK YELLOWSTONE   N/A     39  29  67 CALM      30.35R
W YELLOWSTONE  NOT AVBL

$$
WYZ002>013-054>058-071-098>099-241500-
NORTHERN WYOMING

CITY           SKY/WX    TMP DP  RH WIND       PRES   REMARKS
JACKSON        SUNNY     36  25  64 CALM      30.28R
CODY           FAIR      48  37  66 CALM      30.30R
GREYBULL       FAIR      53  37  54 E10       30.22R
WORLAND        FAIR      53  42  66 SW7       30.26R
SHERIDAN       FAIR      56  44  64 NW6       30.27R
BUFFALO        FAIR      52  40  63 N8        30.29R
GILLETTE       FAIR      54  45  71 N6        30.25R
HULETT         FAIR      54  45  71 CALM      30.25S
NEWCASTLE      FAIR      54  37  54 N6        30.24R

$$
WYZ014>020-022>026-101>103-241500-
CENTRAL WYOMING

CITY           SKY/WX    TMP DP  RH WIND       PRES   REMARKS
BIG PINEY      FAIR      36  17  46 E8        30.30R WCI  30
PINEDALE       FAIR      36  21  55 NW6       30.31R WCI  31
DUBOIS         FAIR      37  19  48 NW7       30.32S WCI  32
LANDER         FAIR      51  28  41 SE5       30.28R
RIVERTON       FAIR      54  33  45 S6        30.29R
CASPER         FAIR      53  36  52 E7        30.29R
DOUGLAS        FAIR      53  36  52 NW6       30.29R

$$
WYZ021-027>030-104>119-241500-
SOUTHERN WYOMING

CITY           SKY/WX    TMP DP  RH WIND       PRES   REMARKS
EVANSTON       FAIR      49  23  36 S7        30.27S
FORT BRIDGER   FAIR      52  24  33 CALM      30.30S
ROCK SPRINGS   FAIR      48  22  35 SE6       30.28R
DIXON          FAIR      48  39  71 CALM      30.29S
RAWLINS        FAIR      53  24  32 N3        30.29R
SARATOGA       FAIR      52  30  43 W3        30.30R
LARAMIE        CLOUDY    52  32  46 NW5       30.30R
CHEYENNE       CLOUDY    56  44  64 SE9       30.25S
TORRINGTON     FAIR      61  35  37 NE8       30.20R
PINE BLUFFS    DRIZZLE   59  43  55 CALM      30.23R

$$




USA.gov is the U.S. government's official web portal to all federal, state and local government web resources and services.